Regional Weather Roundup
Issued by NWS Charleston, SC

Home | Current Version | Previous Version | Text Only | Print | Product List | Glossary On
Versions: 1 2 3 4 5 6 7 8 9 10 11 12 13 14 15 16 17 18 19 20 21 22 23 24 25 26 27 28 29 30 31 32 33 34 35 36 37 38 39 40 41 42 43 44 45 46 47 48 49 50
000
ASUS42 KCHS 240528
RWRCHS

REGIONAL WEATHER ROUNDUP
NATIONAL WEATHER SERVICE CHARLESTON SC
100 AM EDT WED AUG 24 2016

NOTE: "FAIR" INDICATES FEW OR NO CLOUDS BELOW 12,000 FEET WITH NO
SIGNIFICANT WEATHER AND/OR OBSTRUCTIONS TO VISIBILITY.

NOT ALL STATIONS ARE QUALITY CONTROLLED. USE DATA WITH CAUTION...
ESPECIALLY DEWPOINT OBSERVATIONS.

SCZ027-030-031-034>040-042>050-240600-
...SOUTHEAST SOUTH CAROLINA...

CITY           SKY/WX    TMP DP  RH WIND       PRES   REMARKS
N CHARLESTON   PTCLDY    75  68  78 NE5       30.23F
WATERFRONT PRK   N/A     82  72  71 E8        30.20F
MOUNT PLEASANT FAIR      73  70  88 CALM      30.23S
JOHNS ISLAND   FAIR      79  70  73 CALM      30.22F
PINOPOLIS        N/A     79  70  73 VRB2      30.17F
MONCKS CORNER  FAIR      68  66  94 CALM      30.23F
SUMMERVILLE    FAIR      72  72 100 CALM      30.24F
BEAUFORT MCAS  CLEAR     78  72  81 NE6       30.22F
BEAUFORT ARPT  FAIR      79  70  73 E5        30.21F
HILTON HEAD IS PTCLDY    81  72  74 VRB7      30.22S
WALTERBORO     CLEAR     73  73 100 E5        30.24S
ALLENDALE      FAIR      75  72  88 CALM      30.22F

...SOUTHERN MIDLANDS AND PEE DEE...

CITY           SKY/WX    TMP DP  RH WIND       PRES   REMARKS
GEORGETOWN     FAIR      70  66  88 CALM      30.24F
KINGSTREE      FAIR      66  63  88 CALM      30.24F
ORANGEBURG     CLEAR     74  69  85 CALM      30.25S
BARNWELL       NOT AVBL
AIKEN          MOCLDY    75  70  83 SE5       30.28F
MANNING        FAIR      68  66  94 CALM      30.25S
COLUMBIA       CLOUDY    78  69  73 E6        30.24F
SUMTER         PTCLDY    74  68  80 SE1       30.24S
FLORENCE       MOCLDY    73  67  81 CALM      30.26S
MYRTLE BEACH   PTCLDY    81  63  54 E9        30.26S
N MYRTLE BEACH CLEAR     73  67  81 NE5       30.24F

$$

GAZ063-065-086>088-099>101-113>116-118-119-134>141-150-240600-
...SOUTHEAST GEORGIA...

CITY           SKY/WX    TMP DP  RH WIND       PRES   REMARKS
SAVANNAH ARPT  CLOUDY    78  71  79 NE3       30.22S
HUNTER AAF     CLOUDY    79  76  90 CALM      30.19S
FORT STEWART   CLOUDY    76  73  92 CALM      30.19S
STATESBORO     MOCLDY    76  75  96 CALM      30.22F
SYLVANIA       CLOUDY   N/A N/A N/A CALM      30.24S
CLAXTON        FAIR      74  74 100 CALM      30.21F

...CSRA...CENTRAL AND FAR SOUTHEAST GEORGIA...

CITY           SKY/WX    TMP DP  RH WIND       PRES   REMARKS
THOMSON        CLOUDY    81  76  85 MISG      30.28S
AUGUSTA-BUSH   CLEAR     77  72  84 S5        30.23F
AUGUSTA-DANIEL CLEAR     80  72  76 SE5       30.25F
SWAINSBORO     CLOUDY    77  73  88 CALM      30.23F
VIDALIA        CLOUDY    77  77 100 CALM      30.22F
EASTMAN        FAIR      76  76 100 CALM      30.23F
HAZLEHURST     FAIR      76  76 100 CALM      30.20F
ALMA           PTCLDY    75  74  96 CALM      30.20F
WAYCROSS         N/A     78  78 100 NE3       30.19F
JESUP          FAIR      77  77 100 CALM      30.20F
BAXLEY         FAIR      75  75 100 CALM      30.20F
BRUNSWICK      PTCLDY    77  77 100 CALM      30.19F
SAINT SIMONS   PTCLDY    84  73  69 E9        30.19S HX  90

$$

SCZ027-028-034-036>038-045-046-048>050-GAZ119-141-240600-
...LAKE AND SUPPLEMENTAL COASTAL OBSERVATIONS...

STATION/POSITION TIME  TEMP    WIND        PRES    WAVE   SWELL
                       AIR SEA DIR/SP/G            HT/PER HT/PER/DIR
                 (UTC) (F)     (DEG/KT/KT) (MB)    (FT/S) (FT/S/D)
WINYAH BAY       0400   82      90/  8     1023.0
LAKE MURRAY      0400   81     150/ 11/ 15 1023.7R
ACE BASIN NERRS  0400   75        CALM     1024.0S
FORT PULASKI     0500   83 87  100/ 10/ 13 1023.3F
SAPELO ISLAND    0500   83      90/  5     1022.0F

$$

ANZ835-935-AMZ111-154-330-350-352-354-370-450-454-472-240600-
...C-MAN AND BUOY OBSERVATIONS...

STATION/POSITION TIME  TEMP    WIND        PRES    WAVE   SWELL
                       AIR SEA DIR/SP/G            HT/PER HT/PER/DIR
                 (UTC) (F)     (DEG/KT/KT) (MB)    (FT/S) (FT/S/D)
BUOY 41004       0450   83 85   70/ 12/ 14 1022.6F   4/ 7   2/100/ 7
BUOY 41008       0450   84 85   90/ 12/ 14 1022.1S   3/ 6   2/ 80/ 6
FOLLY BEACH CMAN 0500   83      80/ 10/ 12 1023.5F
CAPERS NEARSHORE 0508   83 85   80/ 12/ 16 1023.0F
FRIPP NEARSHORE  0508   84 87   90/ 12/ 17 1022.3F


STATION/POSITION TIME  TEMP    WIND        PRES    WAVE   SWELL
                       AIR SEA DIR/SP/G            HT/PER HT/PER/DIR
                 (UTC) (F)     (DEG/KT/KT) (MB)    (FT/S) (FT/S/D)
5E ST. MARYS GA  0501      84                N/A     3/ 5
FRYING PAN BUOY  0500   82 85   50/ 16/ 21 1023.3F
BUOY 41025       0450   78 84   30/ 12/ 16 1024.0F   3/ 6   3/ 10/ 6
CAPE LOOKOUT NC  0500   78      50/ 13/ 14 1024.1F
BUOY 41002       0450   83 85   60/ 16/ 19 1021.2F   4/ 6   2/ 70/ 8
BUOY 41010       NOT AVBL
ST AUGUSTINE FL  0500   83 83   90/ 11/ 12 1021.9F


$$



USA.gov is the U.S. government's official web portal to all federal, state and local government web resources and services.